Weather observations for the past three days for
Pearson Airfield
Imperial (Metric)
Date Time (pdt) Wind (mph) Vis. (mi.) Weather Sky Cond. Temperature (ºF) Relative Humidity Wind Chill (°F) Heat Index (°F) Pressure Precipitation (in)
Air Dwpt 6 hour altimeter (in) sea level (mb) 1 hr 3 hr 6 hr
Max. Min.
16 04:53 Calm 10.00 Fair CLR 63 55.9 73 62.1 78% 30 1015.8
16 03:53 Calm 10.00 Fair CLR 64 55.9 75% 29.99 1015.7
16 02:53 Calm 10.00 Fair CLR 63 57 81% 29.99 1015.7
16 01:53 Calm 10.00 Fair CLR 66.9 57 71% 29.99 1015.6
16 00:53 NW 3 10.00 Fair CLR 68 57.9 70% 30 1015.8
15 23:53 Calm 10.00 Fair CLR 71.1 57.9 63% 30 1015.8
15 22:53 NW 7 10.00 Fair CLR 73 57.9 84.9 73 59% 30 1015.7
15 21:53 N 9 10.00 Fair CLR 75.9 57.9 54% 78 30 1015.9
15 20:53 NW 6 10.00 Fair CLR 78.1 59 52% 79 29.99 1015.6
15 19:53 NW 8 10.00 Fair CLR 82 59 46% 82 29.99 1015.6
15 18:53 Vrbl 7 10.00 Fair CLR 82 57 43% 82 30 1015.9
15 17:53 NW 10 10.00 Fair CLR 84 54 36% 83 30.01 1016.2
15 16:53 NW 8 10.00 Fair CLR 84 55 84.9 69.1 37% 83 30.02 1016.7
15 15:53 NW 9 G 16 10.00 Fair CLR 82 55 40% 81 30.05 1017.5
15 14:53 W 9 10.00 Fair CLR 80.1 57.9 47% 81 30.07 1018.4
15 13:53 Vrbl 7 10.00 Fair CLR 78.1 55.9 47% 79 30.1 1019.2
15 12:53 W 7 10.00 Fair CLR 75 55 50% 78 30.11 1019.6
15 11:53 Vrbl 3 10.00 Fair CLR 72 55 55% 30.13 1020.2
15 10:53 Calm 10.00 Fair CLR 68 54 69.1 59 61% 30.14 1020.7
15 09:53 NW 6 10.00 A Few Clouds FEW019 66 53.1 63% 30.15 1021.1
15 08:53 NW 8 10.00 Overcast OVC017 63 53.1 70% 30.15 1021.1
15 07:53 Vrbl 3 10.00 Overcast OVC016 61 53.1 75% 30.16 1021.2
15 06:53 NW 6 10.00 Overcast OVC014 60.1 53.1 78% 30.15 1020.9
15 05:53 N 5 10.00 Overcast OVC014 60.1 53.1 78% 30.14 1020.7
15 04:53 NW 3 10.00 Fair CLR 59 53.1 69.1 57.9 81% 30.14 1020.5
15 03:53 NW 3 10.00 Fair CLR 59 53.1 81% 30.12 1020.1
15 02:53 NW 3 10.00 Fair CLR 60.1 53.1 78% 30.12 1019.9
15 01:53 NW 3 10.00 Fair CLR 62.1 53.1 73% 30.11 1019.7
15 00:53 NW 5 10.00 Fair CLR 63 53.1 70% 30.11 1019.5
14 23:53 NW 6 10.00 Fair CLR 66 53.1 63% 30.09 1018.8
14 22:53 NW 7 10.00 Fair CLR 69.1 52 90 69.1 55% 30.08 1018.4
14 21:53 NW 8 10.00 Fair CLR 72 52 50% 30.06 1017.9
14 20:53 NW 6 10.00 Fair CLR 77 51.1 40% 78 30.04 1017.1
14 19:53 NW 9 10.00 Fair CLR 82 48.9 32% 81 30.02 1016.4
14 18:53 NW 12 G 18 10.00 Fair CLR 86 46.9 26% 83 30.01 1016.1
14 17:53 N 9 G 21 10.00 Fair CLR 88 46.9 24% 85 30 1016.0
14 16:53 Calm 10.00 Fair CLR 90 48.9 90 75.9 24% 87 30.01 1016.2
14 15:53 NW 8 G 18 10.00 Fair CLR 89.1 52 28% 87 30.02 1016.5
14 14:53 NW 10 G 17 10.00 Fair CLR 90 55 31% 88 30.03 1016.8
14 13:53 NW 6 10.00 Fair CLR 84.9 54 35% 83 30.04 1017.1
14 12:53 NW 8 10.00 Fair CLR 84 55 37% 83 30.05 1017.4
14 11:53 NW 6 10.00 Fair CLR 79 55 44% 80 30.06 1017.7
14 10:53 NW 6 10.00 Fair CLR 75.9 55 75.9 61 48% 78 30.06 1017.8
14 09:53 Vrbl 6 10.00 Fair CLR 73 55.9 55% 30.06 1018.0
14 08:53 SW 6 10.00 Fair CLR 69.1 55 61% 30.07 1018.1
14 07:53 Calm 10.00 Fair CLR 66.9 54 63% 30.06 1017.9
14 06:53 N 3 10.00 Fair CLR 64.9 54 68% 30.05 1017.4
14 05:53 Calm 10.00 Fair CLR 64 54 70% 30.03 1017.0
14 04:53 Calm 10.00 Fair CLR 61 53.1 77 61 75% 30.02 1016.6
14 03:53 Calm 10.00 Fair CLR 62.1 53.1 73% 30 1015.8
14 02:53 Calm 10.00 Fair CLR 64 55.9 75% 29.99 1015.4
14 01:53 NW 3 10.00 Fair CLR 66.9 55.9 68% 29.98 1015.2
14 00:53 Calm 10.00 Fair CLR 69.1 55 61% 29.98 1015.1
13 23:53 NW 3 10.00 Fair CLR 73.9 55.9 54% 29.97 1014.7
13 22:53 NW 3 10.00 Fair CLR 77 55.9 93 77 48% 79 29.96 1014.4
13 21:53 NW 5 10.00 Fair CLR 81 57 44% 81 29.95 1014.0
13 20:53 NW 6 10.00 Fair CLR 84.9 57.9 40% 84 29.93 1013.4
13 19:53 NW 9 10.00 Fair CLR 88 57.9 36% 87 29.92 1013.1
13 18:53 NW 12 10.00 Fair CLR 91 57 32% 90 29.92 1013.0
13 17:53 NW 9 10.00 Fair CLR 91 57 32% 90 29.92 1013.0
13 16:53 N 12 G 20 10.00 Fair CLR 91 55.9 91.9 73.9 31% 89 29.93 1013.4
13 15:53 NW 12 G 21 10.00 Fair CLR 91 57 32% 90 29.94 1013.9
13 14:53 NW 8 G 20 10.00 Fair CLR 89.1 55.9 33% 87 29.96 1014.3
13 13:53 N 9 G 18 10.00 Fair CLR 87.1 55 34% 85 29.97 1014.7
13 12:53 N 7 10.00 Fair CLR 82.9 57.9 43% 83 29.98 1015.3
13 11:53 W 7 10.00 Fair CLR 78.1 59 52% 79 29.99 1015.6
13 10:53 Calm 10.00 Fair CLR 73 57 73.9 59 57% 30.01 1016.1
13 09:53 Vrbl 5 10.00 Fair CLR 70 57 64% 30.01 1016.3
13 08:53 NW 6 10.00 Fair CLR 66.9 55.9 68% 30.02 1016.7
13 07:53 NW 3 10.00 Fair CLR 64 55 73% 30.03 1016.8
13 06:53 NW 3 10.00 Fair CLR 61 55 81% 30.02 1016.7
13 05:53 Calm 10.00 Fair CLR 59 54 83% 30.01 1016.3
Date Time (pdt) Wind (mph) Vis. (mi.) Weather Sky Cond. Air Dwpt Max. Min. Relative Humidity Wind Chill (°F) Heat Index (°F) altimeter (in) sea level (mb) 1 hr 3 hr 6 hr
6 hour
Temperature (ºF) Pressure Precipitation (in)